User: anonymous   Login
Location: Poughquag
(41.6090°N, 73.6820°W)
Time: 19:01:32
(UTC-04:00)
Language:

Explorer 7 - Orbit

View from above orbital plane
View from above orbital plane
View from above satellite
View from above satellite

Ground track
Ground track

The orbit data is extracted from the following two-line orbital elements,

1    22U 59009A   20090.76741638  .00000177  00000-0  36226-4 0  9998
2    22  50.2837 111.2529 0139836 318.0453  40.9848 14.95076922213550
Epoch (UTC): 30 March 2020 18:25:04
Eccentricity: 0.0139836
inclination: 50.2837°
perigee height: 485 km
apogee height: 679 km
right ascension of ascending node: 111.2529°
argument of perigee: 318.0453°
revolutions per day: 14.95076922
mean anomaly at epoch: 40.9848°
orbit number at epoch: 21355

The dashed part of the orbit path shows where the satellite is in the earth's shadow,  

DLR